CFG159 EDDM-GVBA

Flight info

Callsign CFG159
Flight time N/A
Altitude 31000
Route ALG2Q ALG Y109 UMTEX Y100 TRA DCT LUTIX DCT BENOT DCT NEMOS DCT NINTU DCT MEBAK DCT REPSI DCT LERGA DCT MINSO/N0452F330 DCT NARAK DCT AGN DCT MAQAB DCT TIVLI DCT ELSAP DCT ZAR DCT KONKE DCT TERSA DCT CJN DCT VTB DCT INPAN DCT CRISA DCT HIJ DCT SVL DCT CLANA DCT KORNO UN857 TERTO DCT ANARU/N0458F350 DCT LIMAL/N0467F340 N873 IPERA DCT DIMKI DIMKI1P
Aircraft A21N/M-SDE2E3FGHIRWXY/LB1

Departure

Time N/A
Airport Munich Airport (EDDM)

Arrival

Time 2026-04-22 05:10
Airport Aristides Pereira International Airport (GVBA)
Time Latitude Longitude Altitude Speed Heading
2026-04-22 05:10 16.13633 -22.89069 68 ft 0 kts 287°
2026-04-22 05:36 16.13630 -22.89060 68 ft 2 kts 287°
2026-04-22 05:36 16.13626 -22.89045 69 ft 2 kts 287°
2026-04-22 05:37 16.13621 -22.89031 69 ft 2 kts 287°
2026-04-22 05:37 16.13617 -22.89016 69 ft 2 kts 287°
2026-04-22 05:37 16.13612 -22.89001 70 ft 1 kts 287°
2026-04-22 05:37 16.13609 -22.88991 70 ft 2 kts 278°
2026-04-22 05:38 16.13612 -22.88976 71 ft 2 kts 243°
2026-04-22 05:38 16.13621 -22.88964 71 ft 2 kts 212°
2026-04-22 05:38 16.13628 -22.88961 71 ft 1 kts 196°
2026-04-22 05:38 16.13632 -22.88959 71 ft 0 kts 200°
2026-04-22 05:40 16.13630 -22.88960 71 ft 1 kts 204°
2026-04-22 05:40 16.13617 -22.88974 71 ft 5 kts 232°
2026-04-22 05:41 16.13581 -22.89006 69 ft 8 kts 199°
2026-04-22 05:41 16.13535 -22.89025 69 ft 4 kts 199°
2026-04-22 05:41 16.13499 -22.89030 68 ft 5 kts 178°
2026-04-22 05:41 16.13486 -22.89027 69 ft 0 kts 162°
2026-04-22 05:42 16.13483 -22.89025 69 ft 1 kts 150°
2026-04-22 05:42 16.13464 -22.89007 69 ft 5 kts 122°
2026-04-22 05:42 16.13434 -22.88968 71 ft 9 kts 160°
2026-04-22 05:42 16.13357 -22.88978 70 ft 14 kts 195°
2026-04-22 05:43 16.13246 -22.89025 69 ft 20 kts 198°
2026-04-22 05:43 16.13115 -22.89060 67 ft 21 kts 194°
2026-04-22 05:43 16.12983 -22.89096 66 ft 18 kts 194°
2026-04-22 05:43 16.12898 -22.89159 66 ft 15 kts 214°
2026-04-22 05:44 16.12852 -22.89149 67 ft 4 kts 81°
2026-04-22 05:44 16.12889 -22.89121 67 ft 9 kts 20°
2026-04-22 05:44 16.12901 -22.89118 67 ft 0 kts 18°
2026-04-22 05:45 16.12947 -22.89102 67 ft 32 kts 17°
2026-04-22 05:45 16.13401 -22.88961 71 ft 101 kts 15°
2026-04-22 05:45 16.14261 -22.88695 88 ft 154 kts 16°
2026-04-22 05:45 16.15367 -22.88341 442 ft 169 kts 17°
2026-04-22 05:46 16.16453 -22.87952 1159 ft 166 kts 20°
2026-04-22 05:46 16.17527 -22.87528 1828 ft 166 kts 20°
2026-04-22 05:46 16.18646 -22.87101 2156 ft 174 kts 19°
2026-04-22 05:46 16.19838 -22.86659 2408 ft 187 kts 18°
2026-04-22 05:47 16.21108 -22.86195 2653 ft 201 kts 18°
2026-04-22 05:47 16.22492 -22.85694 2914 ft 216 kts 17°
2026-04-22 05:47 16.23969 -22.85163 3122 ft 234 kts 17°
2026-04-22 05:47 16.25562 -22.84592 3401 ft 249 kts 17°
2026-04-22 05:48 16.27257 -22.83987 3760 ft 260 kts 17°
2026-04-22 05:48 16.29009 -22.83359 4168 ft 269 kts 17°
2026-04-22 05:48 16.30797 -22.82721 4588 ft 277 kts 17°
2026-04-22 05:48 16.32644 -22.82059 5072 ft 282 kts 17°
2026-04-22 05:49 16.34519 -22.81387 5561 ft 285 kts 17°
2026-04-22 05:49 16.36445 -22.80695 6025 ft 290 kts 16°
2026-04-22 05:49 16.38378 -22.80004 6466 ft 294 kts 16°
2026-04-22 05:49 16.40309 -22.79313 6925 ft 297 kts 16°
2026-04-22 05:50 16.42287 -22.78605 7387 ft 300 kts 16°
2026-04-22 05:50 16.44269 -22.77894 7822 ft 303 kts 15°
2026-04-22 05:50 16.46287 -22.77173 8252 ft 307 kts 15°
2026-04-22 05:50 16.48322 -22.76443 8717 ft 308 kts 15°
2026-04-22 05:51 16.50368 -22.75710 9145 ft 311 kts 15°
2026-04-22 05:51 16.52424 -22.74974 9585 ft 313 kts 15°
2026-04-22 05:51 16.54499 -22.74230 10001 ft 316 kts 15°
2026-04-22 05:51 16.56622 -22.73470 10299 ft 324 kts 15°
2026-04-22 05:52 16.58772 -22.72702 10499 ft 334 kts 15°
2026-04-22 05:52 16.61044 -22.71888 10695 ft 345 kts 15°
2026-04-22 05:52 16.63352 -22.71060 10891 ft 356 kts 15°
2026-04-22 05:52 16.65737 -22.70204 11079 ft 366 kts 15°
2026-04-22 05:53 16.68179 -22.69327 11256 ft 376 kts 15°
2026-04-22 05:53 16.70695 -22.68423 11458 ft 384 kts 15°
2026-04-22 05:53 16.73246 -22.67508 11815 ft 387 kts 15°
2026-04-22 05:53 16.75811 -22.66587 12224 ft 389 kts 15°
2026-04-22 05:54 16.78380 -22.65663 12616 ft 391 kts 15°
2026-04-22 05:54 16.80953 -22.64737 12991 ft 393 kts 15°
2026-04-22 05:54 16.83551 -22.63802 13371 ft 394 kts 15°
2026-04-22 05:54 16.86146 -22.62868 13753 ft 395 kts 15°
2026-04-22 05:55 16.88762 -22.61926 14122 ft 397 kts 15°
2026-04-22 05:55 16.91352 -22.60878 14459 ft 402 kts 21°
2026-04-22 05:55 16.93782 -22.59444 14797 ft 407 kts 31°
2026-04-22 05:55 16.96042 -22.57611 15143 ft 410 kts 37°
2026-04-22 05:56 16.98198 -22.55643 15472 ft 412 kts 38°
2026-04-22 05:56 17.00344 -22.53646 15790 ft 414 kts 39°
2026-04-22 05:56 17.02501 -22.51637 16099 ft 415 kts 38°
2026-04-22 05:56 17.04661 -22.49635 16406 ft 417 kts 38°
2026-04-22 05:57 17.06843 -22.47619 16701 ft 419 kts 38°
2026-04-22 05:57 17.09029 -22.45605 16990 ft 420 kts 38°
2026-04-22 05:57 17.11234 -22.43575 17262 ft 422 kts 38°
2026-04-22 05:57 17.13450 -22.41539 17543 ft 424 kts 38°
2026-04-22 05:58 17.15650 -22.39517 17817 ft 425 kts 38°
2026-04-22 05:58 17.17886 -22.37462 18077 ft 427 kts 38°
2026-04-22 05:58 17.20105 -22.35423 18333 ft 428 kts 38°
2026-04-22 05:58 17.22364 -22.33345 18581 ft 429 kts 38°
2026-04-22 05:59 17.23095 -22.32671 18657 ft 430 kts 38°